Regional Weather Roundup
Issued by NWS Jackson, KY

Home | Current Version | Previous Version | Text Only | Print | Product List | Glossary Off
Versions: 1 2 3 4 5 6 7 8 9 10 11 12 13 14 15 16 17 18 19 20 21 22 23 24 25 26 27 28

000
ASUS43 KJKL 091210
RWRJKL

EAST KENTUCKY HOURLY WEATHER ROUNDUP
NATIONAL WEATHER SERVICE JACKSON KY
700 AM EST FRI DEC 09 2016

NOTE: "FAIR" INDICATES FEW OR NO CLOUDS BELOW 12,000 FEET WITH
NO SIGNIFICANT WEATHER AND/OR OBSTRUCTIONS TO VISIBILITY.

* THESE REPORTS ARE NOT UNDER NWS QUALITY CONTROL AND MAY NOT
  REPORT WEATHER SUCH AS PRECIPITATION AND FOG.

KYZ079-080-083-085-087-088-110-112-115-119-120-091300
...EASTERN KENTUCKY...

CITY           SKY/WX    TMP DP  RH WIND       PRES   REMARKS
JACKSON        FLURRIES  21  15  78 NW5       30.46R WCI  15
6HR MIN TEMP:  21; 6HR MAX TEMP:  23; 6HR PCP: TRACE;

LONDON         CLOUDY    22   9  57 N8        30.49S WCI  12
6HR MIN TEMP:  22; 6HR MAX TEMP:  24;

SOMERSET*      FLURRIES  23  14  68 NW6       30.54R WCI  16
MONTICELLO*    CLOUDY    23  14  68 N16       30.55R WCI  10
6HR MIN TEMP:  23; 6HR MAX TEMP:  25; 6HR PCP: TRACE;

MIDDLESBORO*   CLOUDY    24  15  68 NE9       30.49R WCI  14
6HR MIN TEMP:  24; 6HR MAX TEMP:  27;

HARLAN APT*    CLOUDY    23  14  68 W3        30.45S
PIKE CO APT*   FLURRIES  21  13  72 W12       30.45R WCI   9
BIG SANDY APT* CLOUDY    23  11  62 W7        30.47R WCI  14
6HR MIN TEMP:  23; 6HR MAX TEMP:  27;

MOREHEAD APT*  CLOUDY    21  10  63 W6G13     30.51R WCI  14
ASHLAND*       CLOUDY    25  16  68 N10G16    30.49R WCI  15
$$

KYZ035-036-041-042-044-050-067-078-099-091300
...CENTRAL KENTUCKY...

CITY           SKY/WX    TMP DP  RH WIND       PRES   REMARKS
MT STERLING*   CLOUDY    21  14  73 CALM      30.52R
FLEMING/MASON* LGT SNOW  21  15  79 W6        30.51R WCI  13
DANVILLE*      FLURRIES  23  18  80 NW8       30.53S WCI  14
LEXINGTON      CLOUDY    21  12  68 W8        30.52R WCI  11
6HR MIN TEMP:  21; 6HR MAX TEMP:  24; 6HR PCP: TRACE;

FRANKFORT      CLOUDY    22  13  68 W6        30.53R WCI  14
6HR MIN TEMP:  22; 6HR MAX TEMP:  24; 6HR PCP: TRACE;

LOUISVILLE     FLURRIES  24  12  60 NW12      30.57R WCI  13
6HR MIN TEMP:  23; 6HR MAX TEMP:  25; 6HR PCP: TRACE;

LEBANON*       MIX PCPN  23  14  68 W3        30.54R
GLASGOW*       CLOUDY    24  15  68 NW6       30.56R WCI  17
BOWLING GREEN  CLOUDY    26  14  60 NW5       30.58R WCI  20
6HR MIN TEMP:  25; 6HR MAX TEMP:  28;

$$

KYZ091>093-OHZ055-061-077-WVZ005-015-034-035-042-091300
...SOUTHERN OHIO/WEST VIRGINIA...

CITY           SKY/WX    TMP DP  RH WIND       PRES   REMARKS
COVINGTON      FLURRIES  21  12  68 W9        30.49R WCI  11
COLUMBUS       FLURRIES  21  16  81 W13       30.44R WCI   9
DAYTON         MOCLDY    17  14  88 W10       30.45R WCI   5
WILMINGTON     CLEAR     17  13  84 W9        30.45R WCI   6
HUNTINGTON     CLOUDY    24  16  71 VRB6      30.48R WCI  17
CHARLESTON     CLOUDY    24  14  65 W9        30.45R WCI  14
PINEVILLE*     LGT SNOW  22  15  74 MISG      30.44R
BECKLEY        CLOUDY    17   8  67 NW14G22   30.32R WCI   3
BLUEFIELD      FLURRIES  16  10  77 NW10G21   30.29R WCI   4
LOGAN CO APT*  CLOUDY    21  16  79 CALM      30.41R
$$

VAZ002-007-008-TNZ017-027-036-066-071-091300
...SOUTHWEST VIRGINIA/EAST TENNESSEE...

CITY           SKY/WX    TMP DP  RH WIND       PRES   REMARKS
WISE*          LGT SNOW  19  12  73 NW6       30.35S WCI  11
ABINGDON*      CLOUDY    25  14  63 NW9       30.36S WCI  15
BRISTOL        CLOUDY    26  15  63 W7        30.41R WCI  18
MORRISTOWN*    CLOUDY    27  16  63 N6        30.44R WCI  20
SEVIERVILLE*   CLOUDY    25  16  68 NW3       30.47S
KNOXVILLE      CLOUDY    25  15  66 N6        30.48R WCI  18
OAK RIDGE      CLEAR     26  14  60 N5        30.50R WCI  20
CROSSVILLE     CLOUDY    21  13  71 N6        30.44R WCI  13
NASHVILLE      CLOUDY    26  15  63 N12       30.57R WCI  16
$$

...KEY TO REMARKS...
VSB - VISIBILITY IN MILES
WCI - WIND CHILL INDEX
HX  - HEAT INDEX

$$




USA.gov is the U.S. government's official web portal to all federal, state and local government web resources and services.